Location: Emmerborn
(51.8541°N, 9.6737°E)
Time: 01:11:52
(UTC+00:00)

Daily predictions for brighter satellites

Satellite Brightness Start Highest point End
(mag) Time Altitude Azimuth Time Altitude Azimuth Time Altitude Azimuth
USA 32 4.3 00:02:26 24° SSE 00:05:36 64° E 00:10:49 10° NNE
SL-16 R/B 3.9 00:02:19 13° SE 00:05:45 21° E 00:09:56 10° NE
Cosmos 2322 Rocket 4.3 00:03:51 10° W 00:08:16 23° NW 00:12:42 10° NNE
USA 306 3.4 00:07:12 32° S 00:08:19 39° SE 00:12:14 10° ENE
Lacrosse 5 3.4 00:07:00 18° SSE 00:08:31 20° SE 00:12:14 10° E
SL-16 R/B 3.7 00:02:49 10° SE 00:08:34 42° ENE 00:14:23 10° N
Cosmos 1980 3.9 00:06:07 26° S 00:09:18 61° ESE 00:14:53 10° NE
Cosmos 371 Rocket 3.3 00:06:52 28° S 00:09:24 73° ESE 00:14:16 10° NNE
Cosmos 1461 4.4 00:06:50 10° WNW 00:09:52 20° WSW 00:10:09 20° WSW
Cosmos 2322 4.4 00:07:23 15° SW 00:12:03 51° NW 00:17:41 10° NNE
USA 307 3.5 00:11:14 31° S 00:12:22 37° SE 00:16:15 10° ENE
Cosmos 2333 Rocket 3.3 00:07:16 10° WSW 00:12:36 41° NW 00:17:58 10° NNE
Meteor 2-10 Rocket 3.7 00:07:12 10° NNW 00:12:56 81° ENE 00:16:52 20° SSE
ATLAS CENTAUR R/B 3.9 00:12:17 10° W 00:13:25 11° WSW 00:13:49 11° WSW
Cosmos 1269 Rocket 4.4 00:09:47 10° NNW 00:15:04 66° ENE 00:20:15 10° SE
ASTEX 1 4.1 00:10:34 10° N 00:15:14 45° WNW 00:18:02 22° SW
Cosmos 1709 Rocket 3.9 00:09:09 10° N 00:15:19 85° W 00:19:32 21° S
Cosmos 304 Rocket 4.1 00:15:45 26° S 00:18:18 57° ESE 00:23:03 10° NNE
USA 267 3.9 00:17:02 21° S 00:20:28 34° SW 00:26:20 10° WNW
Cosmos 2315 Rocket 4.1 00:18:32 22° S 00:22:52 77° E 00:29:17 10° NNE
USA 229 DEB 4.3 00:18:27 10° NW 00:25:19 44° WSW 00:30:40 18° S
Cosmos 1674 Rocket 4.2 00:23:08 23° SW 00:25:25 43° WNW 00:29:34 10° N
USA 229 4.3 00:18:33 10° NW 00:25:25 44° WSW 00:30:48 18° S
S3M 4.2 00:24:09 22° SSW 00:28:24 64° WNW 00:34:44 10° N
Meteor 1-24 Rocket 4.5 00:25:27 16° SSE 00:29:34 43° E 00:34:41 10° NNE
Cosmos 1455 3.7 00:27:00 10° N 00:30:23 32° ENE 00:33:44 10° SE
Cosmos 2219 Rocket 3.3 00:26:28 10° WSW 00:31:40 38° NW 00:36:53 10° NNE
Cosmos 2150 Rocket 4.1 00:32:32 22° SW 00:35:53 70° WNW 00:41:03 10° NNE
CZ-2D R/B 3.0 00:31:44 10° NNE 00:36:50 41° E 00:40:53 15° SSE
MOZ.5/SAFIR/RUBIN 5/SL-8 3.8 00:34:54 22° S 00:37:59 73° WSW 00:42:46 10° NNW
Cosmos 1455 Rocket 3.0 00:35:06 10° NNW 00:39:36 82° W 00:42:28 22° S
Cosmos 1300 3.3 00:38:48 10° NNW 00:42:23 40° W 00:43:56 26° SW
USA 308 3.0 00:40:45 25° SW 00:42:57 55° SSE 00:47:03 10° ENE
USA 290 4.4 00:43:29 12° W 00:45:37 20° NW 00:48:05 10° N
Cosmos 1125 Rocket 3.9 00:43:32 19° SW 00:47:09 57° WNW 00:52:18 10° NNE
NOSS 0 Rocket 4.2 00:45:01 17° SW 00:49:51 68° NW 00:56:07 10° NNE
Meteor 2-5 Rocket 3.8 00:50:14 19° S 00:54:30 76° E 01:00:10 10° NNE
SL-14 R/B 4.3 00:53:24 20° WSW 00:55:30 33° WNW 00:59:02 10° N
CZ-4C R/B 4.2 00:50:07 10° WNW 00:55:42 23° WSW 00:59:24 17° SW
ERBS 2.0 00:55:13 31° SW 00:56:29 64° SSE 00:59:31 10° ENE
Cosmos 1975 Rocket 3.1 00:56:40 22° SSW 00:59:29 76° WNW 01:03:59 10° N
Cosmos 2237 Rocket 2.4 00:56:44 18° SW 01:01:01 68° WNW 01:06:45 10° NNE
Resurs 1-4 Rocket 2.3 00:57:33 10° NNE 01:02:50 67° ESE 01:07:01 16° S
Cosmos 1025 Rocket 3.0 01:00:08 21° SSW 01:02:57 84° W 01:07:17 10° N
USA-17 4.5 01:02:10 10° NW 01:05:22 83° NE 01:09:20 10° SE
COSMOS 2428 4.1 01:00:28 10° WSW 01:05:33 32° NW 01:10:40 10° NNE
USA 305 2.8 01:02:26 16° WSW 01:05:41 78° SSE 01:09:52 10° ENE
SME Rocket 3.7 01:03:28 20° SSW 01:06:06 49° W 01:11:23 10° NNW
Gblst 52 Del rocket 4.2 01:01:40 10° W 01:07:37 88° S 01:13:09 10° E
CZ-4 R/B 3.9 01:04:58 10° NNE 01:09:39 73° ESE 01:13:13 17° S
Cosmos 332 Rocket 4.0 01:08:19 19° SW 01:11:44 63° WNW 01:16:31 10° NNE
Cosmos 1943 Rocket 2.3 01:07:41 10° NW 01:13:17 59° WSW 01:18:50 10° SSE
YAOGAN 11 4.2 01:09:53 10° SSE 01:14:20 84° ENE 01:18:54 10° NNW
IDEFIX/ARIANE 42P 3.6 01:10:45 10° NNE 01:15:45 41° E 01:20:43 10° SSE
ADEOS II 2.8 01:11:32 10° NNE 01:16:39 49° E 01:21:40 10° S
GP-B 4.1 01:12:39 10° NNW 01:16:40 34° WNW 01:19:29 17° SW
Lacrosse 5 rocket 2.3 01:14:37 19° S 01:16:45 31° SE 01:20:22 10° ENE
Cosmos 614 Rocket 4.0 01:13:07 10° NNW 01:18:21 86° WSW 01:23:35 10° SSE
Cosmos 2297 3.7 01:13:23 10° NW 01:19:07 67° WSW 01:24:48 10° SSE
UNK 3.7 01:15:35 10° SSE 01:20:07 82° WSW 01:24:47 10° NNW
Thor Agena Rocket 4.0 01:15:00 10° N 01:20:09 56° WNW 01:24:18 16° SW
USA 215 3.8 01:19:16 10° ENE 01:25:42 60° N 01:32:07 10° W
Cosmos 1544 Rocket 3.8 01:21:44 10° NNW 01:26:04 53° W 01:29:31 15° SSW
Cosmos 2278 Rocket 3.9 01:25:09 10° WNW 01:28:19 15° W 01:30:39 12° SW
Cosmos 1703 4.3 01:24:53 10° SSE 01:28:35 41° E 01:32:18 10° NNE
Cosmos 2251 Rocket 3.7 01:24:03 10° NNW 01:29:20 76° ENE 01:34:37 10° SSE
Cosmos 2154 Rocket 4.0 01:23:52 10° N 01:30:16 86° W 01:36:35 10° S
Helios 1A 3.1 01:26:21 10° SSE 01:30:33 78° ENE 01:34:48 10° NNW
EO 1 Del DPAF 3.9 01:29:36 10° NNE 01:33:00 43° E 01:36:19 10° S
NPP 3.7 01:31:17 10° NNE 01:36:43 83° WNW 01:41:35 13° SSW
MOS 1 Rocket 3.1 01:33:15 10° S 01:37:29 65° W 01:41:49 10° NNW
Cosmos 2369 Rocket 2.1 01:36:50 10° NNW 01:42:29 83° WSW 01:48:04 10° SSE
Cosmos 1656 Rocket 3.6 01:40:26 10° NNW 01:45:54 87° ENE 01:51:20 10° SSE
USA 306 3.0 01:43:34 10° WSW 01:47:44 78° NNW 01:51:56 10° ENE
SL-16 R/B 2.3 01:44:11 13° SW 01:49:15 79° WNW 01:54:58 10° NNE
Meteor 1-28 Rocket 3.2 01:46:49 10° S 01:50:30 59° W 01:54:12 10° NNW
Cosmos 1726 Rocket 4.4 01:46:12 10° N 01:50:34 52° ENE 01:54:51 10° SSE
Lacrosse 5 1.9 01:46:10 12° SW 01:50:51 75° SSE 01:55:57 10° ENE
USA 307 2.9 01:47:35 10° WSW 01:51:48 80° NNW 01:56:00 10° ENE
SL-16 R/B 2.9 01:46:13 10° S 01:52:09 46° W 01:58:09 10° NNW
Cosmos 2074 Rocket 4.5 01:47:04 10° NNW 01:53:02 46° W 01:58:58 10° SSW
Cosmos 2084 Rocket 3.7 01:56:08 10° WSW 01:59:52 53° NW 02:03:38 10° NE
AQUA 4.0 01:55:32 10° N 02:00:16 64° WNW 02:04:57 10° SSW
Cosmos 1455 3.5 02:02:44 10° NW 02:05:44 23° W 02:08:35 11° SW
Cosmos 2228 3.3 02:08:58 10° NNW 02:13:14 52° W 02:17:26 10° S
Cosmos 407 Rocket 3.5 02:07:56 10° NNW 02:13:18 84° WSW 02:18:35 10° SSE
Cosmos 1271 Rocket 3.6 02:10:30 10° NNW 02:13:57 33° W 02:17:25 10° SSW
COSMOS 2455 2.9 02:08:51 10° SW 02:14:53 87° SE 02:20:58 10° NE
Cosmos 2218 Rocket 4.3 02:09:01 10° N 02:15:16 74° ENE 02:21:34 10° SSE
CZ-2D R/B 3.0 02:11:55 10° N 02:16:51 38° WNW 02:21:42 10° SW
ATLAS 2AS CENTAUR R/B 4.4 02:13:40 10° NW 02:20:35 40° NNE 02:27:04 10° E
Cosmos 1140 Rocket 3.5 02:16:15 10° NNW 02:21:30 70° WSW 02:26:42 10° SSE
USA 308 3.2 02:18:23 10° W 02:22:34 69° N 02:26:45 10° ENE
MSX 3.9 02:18:18 10° NNE 02:24:06 80° WNW 02:29:52 10° SSW
NOSS 3-4 (A) 4.2 02:18:41 10° NW 02:25:24 71° NE 02:33:03 10° SE
NOSS 3-4 (C) 4.2 02:18:45 10° NW 02:25:28 70° NE 02:33:04 10° SE
Cosmos 2058 Rocket 3.4 02:23:48 10° N 02:28:13 73° ENE 02:32:33 10° SSE
Cosmos 292 Rocket 4.1 02:25:58 10° SW 02:30:42 57° WNW 02:35:27 10° NNE
